GPS BIIR-10 (PRN 22)

Last updated on Nov. 28, 2020, 6:20 a.m. UTC

1 28129U 03058A   20332.66920691 -.00000003  00000-0  00000-0 0  9991
2 28129  53.4446 105.0648 0069384 297.7611  61.5112  2.00563543124121
UTC
Height (km)
Latitude
Longitude
Inclination
Orbital Period
UTC large
Height (km)
Speed (km/s)
/
Latitude / Longitude
Inclination (degrees)
Orbital Period (minutes)
Azimuth
Elevation
Range (km)
Doppler Factor
iOS Compass Heading
iOS Angle

Next 30 passes for location: Hong Kong

Rise time Rise Azimuth (degrees) Set time Set Azimuth (degrees) Duration Max altitude (degrees)

No matching passes for this satellites